Weather Roundup
Issued by NWS Springfield, MO

Home | Current Version | Previous Version | Text Only | Print | Product List | Glossary On
Versions: 1 2 3 4 5 6 7 8 9 10 11 12 13 14 15 16 17 18 19 20 21 22 23 24 25 26 27 28 29 30 31 32 33 34 35 36 37 38 39 40 41 42 43 44 45 46 47 48 49 50
000
NZUS99 KSGF 290507
HRRSGF

HOURLY WEATHER
NATIONAL WEATHER SERVICE SPRINGFIELD MO
1200 AM CDT WED JUL 29 2015

......SGF CWA......

CITY           SKY/WX    TMP DP  RH WIND       PRES   REMARKS
SPRINGFIELD    CLEAR     80  74  81 CALM      30.01R
JOPLIN         CLEAR     80  74  81 SE6       30.00R
WEST PLAINS    CLEAR     77  74  90 CALM      30.05R FOG
ROLLA          CLEAR     79  74  84 S3        30.00R
OSAGE BEACH    CLEAR     81  75  83 S3        29.99R
BRANSON        CLEAR     81  75  83 CALM      30.03R

......SURROUNDING SGF CWA......

CITY           SKY/WX    TMP DP  RH WIND       PRES   REMARKS
CHANUTE        CLEAR     77  72  84 S6        29.97R
PARSONS        CLEAR     76  73  91 CALM      29.98R
COFFEYVILLE    CLEAR     78  74  87 S5        29.96R
EMPORIA        CLEAR     83  72  69 S12       29.95R
GROVE OK       CLEAR     81  81 100 CALM      30.00R HX  91
ROGERS AR      CLEAR     79  75  87 S5        30.03R
SILOAM SPRINGS CLEAR     79  72  78 CALM      30.01R
HARRISON AR    CLEAR     80  75  84 CALM      30.03R
NEAR YELLVILLE CLEAR     81  75  83 CALM      29.98R

......KANSAS AND MISSOURI......

CITY           SKY/WX    TMP DP  RH WIND       PRES   REMARKS
KANSAS CTY INT CLOUDY    84  72  67 SW9       29.94R
DOWNTOWN KC    CLEAR     86  73  65 S12       29.91S HX  93
COLUMBIA       CLEAR     79  76  90 S8        29.97S
SEDALIA        CLEAR     81  75  82 S6        29.98S
ST JOSEPH      MOCLDY    81  76  84 N10       29.94R
ST LOUIS       PTCLDY    88  77  69 CALM      29.98R HX 100
SPIRIT OF STL  CLEAR     82  80  94 CALM      29.96R HX  94
KIRKSVILLE     CLOUDY    76  65  68 VRB3      29.99F
WICHITA        PTCLDY    84  68  58 S10       29.96R
TOPEKA         CLOUDY    86  75  69 W5        29.94R HX  95
OLATHE         CLEAR     80  73  79 S6        29.95R

......TENNESSEE......

CITY           SKY/WX    TMP DP  RH WIND       PRES   REMARKS
MEMPHIS        CLEAR     89  74  60 SE5       30.00S HX  98
NASHVILLE      CLOUDY    76  75  97 CALM      30.00F

......ARKANSAS.......

CITY           SKY/WX    TMP DP  RH WIND       PRES   REMARKS
FAYETTEVILLE   CLEAR     77  75  93 SW3       30.02R
FT SMITH       CLEAR     85  68  56 CALM      29.96R
LITTLE ROCK    CLEAR     84  75  74 SW3       29.98S HX  92

......OKLAHOMA.......

CITY           SKY/WX    TMP DP  RH WIND       PRES   REMARKS
TULSA          CLEAR     85  71  63 S6        29.96R HX  90
PONCA CITY     CLEAR     85  69  58 S7        29.95R
MCALESTER      CLEAR     79  68  69 CALM      29.99R
OKLAHOMA CITY  PTCLDY    74  68  81 S6        29.98R

......IOWA............

CITY           SKY/WX    TMP DP  RH WIND       PRES   REMARKS
DES MOINES     TSTM      72  69  90 NW3       29.97F
QUAD CITIES    CLOUDY    78  75  90 W3        29.94S

......ILLINOIS........

CITY           SKY/WX    TMP DP  RH WIND       PRES   REMARKS
QUINCY         CLEAR     81  79  94 SW3       29.95S HX  90
CHICAGO        MOCLDY    77  73  87 S6        29.94R



USA.gov is the U.S. government's official web portal to all federal, state and local government web resources and services.